Location: Praha
(50.0830°N, 14.4670°E)
Time: 17:16:40
(UTC+01:00)

ISS - Pass Details

Date: 06 January 2020
Orbit: 415 x 421 km, 51.6° (Epoch: 18 January)

Event Time Altitude Azimuth Distance (km) Brightness Sun altitude
Exits shadow 06:24:39 27° 260° (W) 834 -2.8 -14.5°
Maximum altitude 06:25:57 41° 209° (SSW) 616 -3.0 -14.3°
Drops below altitude 10° 06:29:07 10° 138° (SE) 1,485 0.0 -13.8°
Sets 06:31:16 0° 131° (SE) 2,346 1.4 -13.5°
